Location: Arpaise
(41.0333°N, 14.7333°E)
Time: 01:33:04
(UTC+00:00)

Cosmos 1821 Rocket - Pass Details

Date: 05 July 2020
Orbit: 946 x 1004 km, 82.9° (Epoch: 11 August)

Event Time Altitude Azimuth Distance (km) Brightness Sun altitude
Exits shadow 23:05:51 48° 120° (ESE) 1,225 4.3 -26.3°
Maximum altitude 23:06:44 52° 92° (E) 1,169 4.3 -26.3°
Drops below altitude 10° 23:12:38 10° 17° (NNE) 2,678 7.2 -26.3°
Sets 23:15:10 0° 13° (NNE) 3,624 8.3 -26.3°
